Regional Weather Roundup
Issued by NWS Newport/Morehead, NC

Current Version | Previous Version | Graphics & Text | Print | Product List | Glossary Off
Versions: 1 2 3 4 5 6 7 8 9 10 11 12 13 14 15 16 17 18 19 20 21 22 23 24 25 26 27 28 29 30 31 32 33 34 35 36 37 38 39 40 41 42 43 44 45 46 47 48 49 50

000
ASUS42 KMHX 281325
RWRMHX
WEATHER ROUNDUP FOR EASTERN NORTH CAROLINA
NATIONAL WEATHER SERVICE NEWPORT/MOREHEAD CITY NC
900 AM EDT FRI AUG 28 2015

NOTE: "FAIR" INDICATES FEW OR NO CLOUDS BELOW 12,000 FEET
WITH NO SIGNIFICANT WEATHER AND/OR OBSTRUCTIONS TO VISIBILITY

NCZ015>017-031-032-045>047-102-103-281400-
NORTH COAST

CITY           SKY/WX    TMP DP  RH WIND       PRES   REMARKS
EDENTON        MOSUNNY   71  63  75 N6        30.15S
ELIZABETH CITY MOSUNNY   74  65  73 N8        30.15R
KITTY HAWK     PTSUNNY   78  62  58 NE8       30.12S
MANTEO         PTSUNNY   78  63  60 NE12G17   30.14R

$$

NCZ045>047-081-094-103-104-281400-
CENTRAL COAST

CITY           SKY/WX    TMP DP  RH WIND       PRES   REMARKS
FRISCO         MOSUNNY   77  65  66 NE8       30.11R
SWANQUARTER    NOT AVBL

$$

NCZ095-097-098-100-101-281400-
SOUTHERN COAST

CITY           SKY/WX    TMP DP  RH WIND       PRES   REMARKS
BEAUFORT       MOSUNNY   77  70  79 NE8       30.11R
CEDAR ISLAND   NOT AVBL
JACKSONVILLE   SUNNY     75  64  68 NE10      30.12R
PINEY ISLAND   MOSUNNY  N/A N/A N/A NE13      30.11R
WILMINGTON     MOSUNNY   74  66  76 NE12      30.11R


$$

NCZ011>013-027>030-043-044-078>080-089-090>093-098-281400-
COASTAL PLAIN

CITY           SKY/WX    TMP DP  RH WIND       PRES   REMARKS
AHOSKIE        SUNNY     72  62  72 N7        30.17S
CLINTON        MOSUNNY   73  65  76 NE3       30.15S
ELIZABETHTOWN  SUNNY     73  65  74 CALM      30.14S
GOLDSBORO      MOSUNNY   70  64  79 NE9       30.15R
GREENVILLE     MOSUNNY   70  64  83 N7        30.17R
HAVELOCK       SUNNY     78  66  66 NE14      30.13R
KENANSVILLE      N/A     70  64  80 CALM      30.16S
KINSTON        MOSUNNY   70  64  83 N6        30.16R
NEW BERN       SUNNY     74  65  73 N7        30.14S
RICHLANDS      MOSUNNY   75  61  60 NE10G17   30.14R
ROCKY MOUNT    SUNNY     72  62  71 NE8       30.17R
WASHINGTON     MOSUNNY   72  65  78 N6        30.16R
WHITEVILLE     MOSUNNY   72  65  79 NE5       30.12S

$$

AMZ130-135-150-152-154-156-158-170-250-252-270-ANZ085-086-088-633-658-670-281400-
MARINE OBSERVATIONS

STATION/POSITION TIME  TEMP    WIND        PRES    WAVE   SWELL
                       AIR SEA DIR/SP/G            HT/PER HT/PER
                 (UTC) (F)     (DEG/KT/KT) (MB)    (FT/S) (FT/S)
CHESAPEAKE LIGHT 1300   75      40/ 13/ 15 1021.6
64 E VA BEACH    1250   77 79   30/ 14/ 17 1019.7    4/ 9   3/ 9
DUCK             1300   76 78   40/ 16/ 18 1019.8
2 E DUCK         1211      78                N/A     4/ 4   2/11
OREGON INLET     1300   77 75   40/ 12/ 17 1019.9
13E OREGON INLT  1300      79                N/A     5/ 8   2/11
HATTERAS CG      1300   78 78   30/ 11/ 16 1019.4
DIAMOND BUOY     1250   79 82   40/ 19/ 23 1018.8    6/ 6   2/ 9
CAPE LOOKOUT     1300   78      30/ 16/ 19 1019.1
BEAUFORT LAB     1300   77 79   40/  7/  9 1018.8
30 SE NEW RVR IN NOT AVBL
30 SE NEW RVR IN 1225      82                N/A     4/ 5   2/12
27 SE WRIGHTSVLE 1300   77 82   60/ 16/ 17   N/A
5 SE WRIGHTSVLE  NOT AVBL
225 S CAPE HAT   1250   81 84  160/  4/  8 1017.7    3/ 8   3/ 8
41 SE CHARLESTON 1250   81 84   10/  8/ 10 1017.6    3/ 5   2/ 5

$$



USA.gov is the U.S. government's official web portal to all federal, state and local government web resources and services.